Regional Weather Roundup
Issued by NWS

Home | Current Version | Previous Version | Text Only | Print | Product List | Glossary Off
Versions: 1 2 3 4 5 6 7 8 9 10 11 12 13 14 15 16 17 18 19 20 21 22 23 24 25 26 27 28 29 30 31 32 33 34 35 36 37 38 39 40 41 42 43 44 45 46 47 48 49 50

000
ASUS44 KMEG 192310
RWRTN
TENNESSEE HOURLY STATE WEATHER ROUNDUP
NATIONAL WEATHER SERVICE MEMPHIS TN
600 PM CDT FRI SEP 19 2014

TNZ002-004-019-021-049-052-054-088>092-200000-
WEST TENNESSEE

CITY           SKY/WX    TMP DP  RH WIND       PRES   REMARKS
MEMPHIS INTL   MOSUNNY   84  66  54 S5        29.99S
NWS MEMPHIS      N/A     80 N/A N/A MISG        N/A
JACKSON        SUNNY     81  69  67 CALM      30.01R
DYERSBURG      SUNNY     82  61  47 CALM      30.01S
UNION CITY     SUNNY     81  64  57 SE3       30.00S
PARIS          SUNNY     79  63  57 CALM      30.02S
HUNTINGDON     SUNNY     80  63  56 CALM      30.01S
LEXINGTON      SUNNY     82  66  57 NW3       30.01R
SAVANNAH       PTSUNNY   84  68  58 CALM      30.01R
$$

TNZ008-025-027-028-033-062-065-066-200000-
NORTH MIDDLE TENNESSEE

CITY           SKY/WX    TMP DP  RH WIND       PRES   REMARKS
NASHVILLE      PTCLDY    83  61  47 E6        30.02S
DICKSON        CLEAR     81  64  57 CALM      30.02S
PORTLAND       CLEAR     81  63  54 CALM      30.03S
CLARKSVILLE    CLEAR     81  62  52 CALM      30.01F
LEBANON        CLEAR     84  61  45 CALM      30.01S
SMYRNA         PTCLDY    83  63  50 N5        30.03R
MURFREESBORO   PTCLDY    82  64  54 E5        30.01
COOKEVILLE     PTCLDY    77  70  78 CALM      30.06R
LIVINGSTON     CLEAR     78  61  55 CALM      30.08R
GALLATIN       CLEAR     83  64  52 E3        30.04S
CROSSVILLE     CLEAR     76  62  62 CALM      30.11R
$$

TNZ061-075-076-078-094-096-097-200000-
SOUTH MIDDLE TENNESSEE

CITY           SKY/WX    TMP DP  RH WIND       PRES   REMARKS
LEWISBURG      PTCLDY    84  65  52 CALM      30.02R
FAYETTEVILLE   CLEAR     81  63  54 SE5       30.04R
TULLAHOMA      CLEAR     81  64  57 SE5       30.06R
WINCHESTER     CLEAR     82  64  54 SE6       30.05R
MCMINNVILLE    MOCLDY    82  70  65 CALM      30.06R
COLUMBIA       CLEAR     84  68  58 CALM      30.01R
SHELBYVILLE    CLEAR     82  68  61 SE3       30.04R
$$

TNZ017-018-042-046-047-200000-
NORTHEAST TENNESSEE

CITY           SKY/WX    TMP DP  RH WIND       PRES   REMARKS
TRI CITIES     PTCLDY    73  57  57 SE8       30.14R
ELIZABETHTON   CLEAR     70  57  64 E10       30.17R
$$

TNZ012-013-036-069-073-074-200000-
CENTRAL EAST TENNESSEE

CITY           SKY/WX    TMP DP  RH WIND       PRES   REMARKS
KNOXVILLE      MOCLDY    81  60  48 CALM      30.06
OAK RIDGE      PTCLDY    81  62  52 CALM      30.08R
GATLINBURG     MOCLDY    75  63  64 CALM      30.07R
MORRISTOWN     CLEAR     79  61  53 CALM      30.10S
$$

TNZ083-085-099-200000-
SOUTHEAST TENNESSEE

CITY           SKY/WX    TMP DP  RH WIND       PRES   REMARKS
CHATTANOOGA    MOCLDY    82  62  50 SE6       30.05R
$$

SKY/WX REPORTED AS FAIR MEANS FEW OR NO CLOUDS BELOW
12 THOUSAND FEET.



USA.gov is the U.S. government's official web portal to all federal, state and local government web resources and services.